Zurück zum Katalog

FENGYUN 1C DEB

AktivPO
NORAD 31537·DEBRIS·🇨🇳 China

Gestartet May 10, 1999 von Taiyuan Satellite Launch Center

Loading…

Nächste Überflüge (nächste 24 Stunden)

TLE

AlterndSource: Space-Track

Epoche: Sep 8, 2026, 06:41 UTC

1 31537U 99025BYC 26251.27863929  .00006370  00000-0  15203-2 0  9995
2 31537  99.3144  65.5859 0328664 275.2620  81.1141 14.26037805971179

Verfolge FENGYUN 1C DEB in Echtzeit mit AllMySat

Download on the App Store